This is the latest recevied weather packets stored in our database for station/object W0AKO. If no packets are shown the sender has not sent any weather packets the latest 10 day(s).
| Time | Temp. | Humidity | Pressure | Rain* | Wind** | Luminosity | Snow |
|---|---|---|---|---|---|---|---|
| 1777819000 | 16.11° C | 10% | 1017 hPa | 0 mm | - | 174 W/m² | - |
| 1777818697 | 16.11° C | 10% | 1016.9 hPa | 0 mm | - | 154 W/m² | - |
| 1777818394 | 15.56° C | 10% | 1016.9 hPa | 0 mm | - | 167 W/m² | - |
| 1777818091 | 16.11° C | 10% | 1017 hPa | 0 mm | - | 108 W/m² | - |
| 1777817787 | 16.11° C | 10% | 1016.7 hPa | 0 mm | - | 145 W/m² | - |
| 1777817485 | 15.56° C | 10% | 1016.8 hPa | 0 mm | - | 104 W/m² | - |
| 1777817181 | 15.56° C | 10% | 1016.5 hPa | 0 mm | - | 81 W/m² | - |
| 1777816879 | 15° C | 10% | 1016.7 hPa | 0 mm | - | 114 W/m² | - |
| 1777816575 | 14.44° C | 10% | 1016.7 hPa | 0 mm | - | 89 W/m² | - |
| 1777816272 | 15° C | 10% | 1016.6 hPa | 0 mm | - | 75 W/m² | - |
| 1777815969 | 14.44° C | 10% | 1016.6 hPa | 0 mm | - | 65 W/m² | - |
| 1777815667 | 13.89° C | 10% | 1016.3 hPa | 0 mm | - | 61 W/m² | - |
| 1777815364 | 13.89° C | 10% | 1016.4 hPa | 0 mm | - | 41 W/m² | - |
| 1777815061 | 13.33° C | 10% | 1016.3 hPa | 0 mm | - | 34 W/m² | - |
| 1777814757 | 13.33° C | 10% | 1016.4 hPa | 0 mm | - | 27 W/m² | - |
| 1777814454 | 13.89° C | 10% | 1016.4 hPa | 0 mm | - | 23 W/m² | - |
| 1777814151 | 13.33° C | 10% | 1016.3 hPa | 0 mm | - | 19 W/m² | - |
| 1777813848 | 13.33° C | 10% | 1016 hPa | 0 mm | - | 17 W/m² | - |
| 1777813545 | 13.33° C | 10% | 1016.3 hPa | 0 mm | - | 13 W/m² | - |
| 1777813243 | 13.33° C | 10% | 1016 hPa | 0 mm | - | 8 W/m² | - |
| 1777812940 | 13.33° C | 10% | 1016.2 hPa | 0 mm | - | 6 W/m² | - |
| 1777812638 | 12.78° C | 10% | 1016.2 hPa | 0 mm | - | 6 W/m² | - |
| 1777812334 | 12.78° C | 10% | 1015.9 hPa | 0 mm | - | 4 W/m² | - |
| 1777812033 | 13.33° C | 10% | 1015.9 hPa | 0 mm | - | 1 W/m² | - |
| 1777811731 | 13.33° C | 10% | 1015.9 hPa | 0 mm | - | 0 W/m² | - |
* Rain latest hour (hover to see other rain measurements)
** Current wind speed in m/s (hover to see current wind gust speed)